"startDT [UTC]","vpos","CH4 [ppm]","stdev(CH4) [ppm]","CO2 [ppm]","stdev(CO2) [ppm]","H2O_reported [%]","stdev(H2O_reported)","CavityPressure [torr]","CavityTemp [C]","OutletValve","CH4_dry [ppm]","CO2_dry [ppm]","DasTemp [C]","EtalonTemp [C]","WarmBoxTemp [C]","MPVPosition","T_ECpre [C]","T_EC1 [C]","T_EC2 [C]","p_inlet [hPa]","p_in [hPa]","p_out [hPa]","T_inlet [C]","RH_inlet [%]","dwpt_inlet [C]","T_vent [C]","RH_vent [%]","dwpt_vent [C]","flow_vent [l min-1]","flow_inlet [l min-1]","dwpt_sample [C]","T_room [C]"
2016-03-08 00:00:00,0.0,1.95617,0.00035,408.253,0.029,0.1267,0.0018,140.004,45.001,31580.27214,1.95861,408.877,36.324,45.069,44.999,0.00,0.08,-272.79,-272.82,-11,520,-940,24.3,3.1,-23.2,24.4,3.2,-22.8,5.73,2.03,-16.2,30.0
2016-03-08 00:01:00,0.0,1.95608,0.00047,408.253,0.035,0.1262,0.0020,140.003,45.001,31583.20821,1.95855,408.875,36.338,45.069,45.000,0.00,0.08,-272.78,-272.82,-12,519,-940,24.3,3.1,-23.1,24.4,3.2,-22.8,5.73,1.71,-16.2,30.0
2016-03-08 00:02:00,0.0,1.95637,0.00044,408.267,0.029,0.1251,0.0014,139.997,45.001,31580.36858,1.95873,408.881,36.373,45.069,45.000,0.00,0.08,-272.76,-272.84,-11,520,-940,24.3,3.1,-23.3,24.5,3.2,-22.8,5.73,2.09,-16.2,30.0
2016-03-08 00:03:00,0.0,1.95634,0.00031,408.259,0.028,0.1255,0.0015,140.002,45.001,31580.01285,1.95880,408.878,36.375,45.069,45.000,0.00,0.33,-270.77,-272.58,-11,520,-940,24.3,3.1,-23.3,24.5,3.2,-22.9,5.42,1.86,-21.3,30.0
2016-03-08 00:04:00,0.0,1.95601,0.00045,408.254,0.032,0.1262,0.0021,139.997,45.000,31581.78168,1.95842,408.874,36.407,45.069,45.000,0.00,0.08,-272.77,-272.84,-12,519,-941,24.3,3.1,-23.2,24.5,3.2,-22.8,5.73,2.04,-16.2,30.0
2016-03-08 00:05:00,0.0,1.95604,0.00063,408.252,0.046,0.1256,0.0018,139.999,45.000,31584.46049,1.95850,408.871,36.450,45.070,45.000,0.00,0.08,-272.75,-272.83,-11,520,-941,24.3,3.1,-23.1,24.5,3.2,-22.7,5.73,1.79,-16.2,30.0
2016-03-08 00:06:00,0.0,1.95513,0.00034,408.174,0.028,0.1277,0.0022,140.001,45.000,31589.01509,1.95758,408.801,36.498,45.070,45.001,0.00,0.08,-272.77,-272.84,-12,519,-941,24.3,3.2,-23.0,24.5,3.2,-22.7,5.73,1.95,-16.2,30.0
2016-03-08 00:07:00,0.0,1.95471,0.00080,408.177,0.048,0.1282,0.0014,139.999,45.001,31590.28768,1.95725,408.807,36.552,45.070,45.001,0.00,0.08,-272.76,-272.83,-12,520,-941,24.3,3.2,-23.0,24.5,3.2,-22.6,5.73,1.88,-16.2,30.0
2016-03-08 00:08:00,0.0,1.95458,0.00034,408.190,0.027,0.1283,0.0019,140.000,45.001,31592.26765,1.95703,408.822,36.605,45.071,45.001,0.00,0.08,-272.76,-272.82,-11,520,-941,24.4,3.2,-23.0,24.5,3.3,-22.6,5.73,1.86,-16.2,30.0
2016-03-08 00:09:00,0.0,1.95515,0.00034,408.190,0.034,0.1273,0.0026,140.003,45.001,31597.34226,1.95758,408.815,36.696,45.071,45.001,0.00,0.08,-272.77,-272.81,-12,520,-941,24.4,3.2,-23.0,24.5,3.2,-22.6,5.73,1.95,-16.2,30.1
2016-03-08 00:10:00,0.0,1.95469,0.00054,408.181,0.037,0.1268,0.0015,140.001,45.001,31601.30523,1.95715,408.805,36.781,45.070,45.001,0.00,0.08,-272.77,-272.81,-10,520,-941,24.4,3.1,-23.1,24.5,3.2,-22.7,5.73,1.80,-16.2,30.1
2016-03-08 00:11:00,0.0,1.95488,0.00042,408.174,0.046,0.1275,0.0018,139.999,45.001,31607.61728,1.95734,408.803,36.834,45.070,45.001,0.00,0.08,-272.76,-272.83,-12,519,-941,24.4,3.2,-23.0,24.5,3.2,-22.6,5.73,2.02,-16.2,30.1
2016-03-08 00:12:00,0.0,1.95464,0.00037,408.152,0.023,0.1269,0.0025,139.999,45.001,31607.19775,1.95711,408.776,36.885,45.070,45.000,0.00,0.08,-272.77,-272.82,-11,520,-941,24.4,3.1,-23.1,24.5,3.2,-22.7,5.73,1.75,-16.2,30.1
2016-03-08 00:13:00,0.0,1.95506,0.00070,408.191,0.042,0.1288,0.0021,140.002,45.002,31612.00629,1.95748,408.823,36.936,45.070,45.001,0.00,0.08,-272.77,-272.83,-11,520,-942,24.4,3.2,-23.0,24.5,3.2,-22.6,5.73,2.05,-16.2,30.1
2016-03-08 00:14:00,0.0,1.95567,0.00043,408.231,0.031,0.1274,0.0016,140.002,45.002,31616.57825,1.95816,408.859,36.991,45.070,45.000,0.00,0.08,-272.76,-272.82,-12,520,-942,24.4,3.1,-23.0,24.5,3.2,-22.6,5.73,1.72,-16.2,30.1
2016-03-08 00:15:00,0.0,1.95491,0.00038,408.187,0.043,0.1293,0.0016,139.998,45.002,31618.45490,1.95740,408.822,37.074,45.070,45.000,0.00,0.08,-272.78,-272.82,-11,520,-942,24.4,3.2,-22.9,24.5,3.3,-22.6,5.73,2.07,-16.2,30.1
2016-03-08 00:16:00,0.0,1.95530,0.00041,408.191,0.042,0.1285,0.0020,140.001,45.001,31620.95894,1.95779,408.824,37.138,45.070,45.000,0.00,0.08,-272.76,-272.83,-12,520,-942,24.4,3.1,-23.0,24.5,3.2,-22.6,5.73,1.71,-16.2,30.2
2016-03-08 00:17:00,0.0,1.95503,0.00042,408.182,0.026,0.1275,0.0017,139.998,45.001,31623.21282,1.95746,408.810,37.188,45.070,45.000,0.00,0.08,-272.74,-272.82,-11,520,-942,24.5,3.1,-23.0,24.5,3.2,-22.6,5.73,2.08,-16.2,30.2
2016-03-08 00:18:00,0.0,1.95490,0.00047,408.200,0.031,0.1289,0.0019,139.999,45.001,31625.84074,1.95742,408.835,37.239,45.070,45.000,0.00,0.08,-272.75,-272.82,-12,520,-942,24.5,3.1,-22.9,24.5,3.2,-22.6,5.73,1.70,-16.2,30.2
2016-03-08 00:19:00,0.0,1.95544,0.00046,408.205,0.044,0.1290,0.0014,140.000,45.001,31629.74479,1.95790,408.839,37.275,45.070,45.001,0.00,0.08,-272.77,-272.83,-11,520,-942,24.5,3.2,-22.9,24.5,3.3,-22.5,5.73,2.08,-16.2,30.3
2016-03-08 00:20:00,0.0,1.95562,0.00062,408.225,0.039,0.1276,0.0016,139.999,45.001,31633.23738,1.95804,408.852,37.343,45.070,45.001,0.00,0.08,-272.76,-272.83,-11,520,-942,24.5,3.1,-23.0,24.5,3.2,-22.6,5.73,1.70,-16.2,30.3
2016-03-08 00:21:00,0.0,1.95607,0.00042,408.234,0.030,0.1283,0.0019,140.001,45.001,31635.58224,1.95856,408.865,37.376,45.070,45.001,0.00,0.08,-272.76,-272.82,-12,520,-943,24.5,3.1,-23.0,24.6,3.2,-22.6,5.73,2.09,-16.2,30.3
2016-03-08 00:22:00,0.0,1.95514,0.00034,408.182,0.047,0.1289,0.0016,140.003,45.001,31638.94231,1.95768,408.817,37.428,45.070,45.001,0.00,0.08,-272.77,-272.83,-11,520,-943,24.5,3.2,-22.9,24.6,3.2,-22.6,5.73,1.70,-16.2,30.3
2016-03-08 00:23:00,0.0,1.95519,0.00046,408.195,0.032,0.1305,0.0019,140.000,45.001,31640.61272,1.95767,408.836,37.463,45.070,45.001,0.00,0.08,-272.77,-272.83,-12,520,-943,24.6,3.2,-22.8,24.6,3.3,-22.5,5.73,2.09,-16.2,30.3
2016-03-08 00:24:00,0.0,1.95463,0.00047,408.175,0.040,0.1313,0.0014,140.000,45.001,31642.24406,1.95721,408.822,37.502,45.070,45.001,0.00,0.08,-272.76,-272.83,-11,520,-943,24.6,3.2,-22.7,24.6,3.3,-22.5,5.73,1.70,-16.2,30.4
2016-03-08 00:25:00,0.0,1.95456,0.00046,408.144,0.034,0.1319,0.0017,139.999,45.001,31641.44952,1.95705,408.792,37.559,45.070,45.001,0.00,0.08,-272.76,-272.83,-12,520,-943,24.6,3.2,-22.7,24.6,3.3,-22.4,5.73,2.09,-16.2,30.4
2016-03-08 00:26:00,0.0,1.95533,0.00050,408.190,0.050,0.1290,0.0020,140.000,45.001,31646.52100,1.95781,408.823,37.574,45.070,45.001,0.00,0.08,-272.77,-272.83,-11,520,-943,24.6,3.1,-23.0,24.6,3.2,-22.5,5.73,1.70,-16.2,30.4
2016-03-08 00:27:00,0.0,1.95550,0.00032,408.215,0.025,0.1287,0.0017,140.000,45.001,31648.67960,1.95798,408.849,37.612,45.070,45.001,0.00,0.08,-272.77,-272.82,-12,520,-943,24.6,3.1,-23.0,24.7,3.2,-22.6,5.73,2.08,-16.2,30.4
2016-03-08 00:28:00,0.0,1.95598,0.00051,408.230,0.040,0.1286,0.0024,140.001,45.001,31651.24946,1.95846,408.862,37.621,45.070,45.001,0.00,0.08,-272.76,-272.81,-11,521,-943,24.6,3.1,-22.9,24.7,3.2,-22.6,5.73,1.70,-16.2,30.5
2016-03-08 00:29:00,0.0,1.95529,0.00053,408.192,0.036,0.1281,0.0019,139.998,45.001,31655.88851,1.95780,408.824,37.630,45.070,45.001,0.00,0.08,-272.77,-272.82,-11,520,-943,24.6,3.1,-22.9,24.6,3.2,-22.6,5.73,2.08,-16.2,30.5
2016-03-08 00:30:00,0.0,1.95553,0.00028,408.208,0.028,0.1284,0.0020,140.000,45.001,31658.03393,1.95797,408.839,37.662,45.070,45.001,0.00,0.08,-272.77,-272.83,-12,521,-944,24.7,3.1,-22.9,24.7,3.2,-22.6,5.73,1.71,-16.2,30.5
2016-03-08 00:31:00,0.0,1.95598,0.00033,408.228,0.030,0.1275,0.0018,140.002,45.001,31661.21922,1.95845,408.855,37.687,45.070,45.001,0.00,0.08,-272.76,-272.82,-10,521,-944,24.7,3.1,-23.1,24.7,3.2,-22.6,5.73,2.08,-16.2,30.5
2016-03-08 00:32:00,0.0,1.95596,0.00055,408.229,0.034,0.1271,0.0019,140.000,45.000,31662.78819,1.95843,408.855,37.714,45.070,45.001,0.00,0.08,-272.76,-272.82,-12,521,-944,24.7,3.1,-23.1,24.7,3.2,-22.7,5.73,1.71,-16.2,30.6
2016-03-08 00:33:00,0.0,1.95618,0.00030,408.251,0.026,0.1273,0.0009,139.999,45.001,31662.35911,1.95862,408.876,37.750,45.070,45.001,0.00,0.08,-272.77,-272.83,-10,521,-944,24.7,3.1,-23.1,24.7,3.2,-22.7,5.73,2.07,-16.2,30.6
2016-03-08 00:34:00,0.0,1.95605,0.00043,408.248,0.026,0.1273,0.0017,139.998,45.000,31664.94024,1.95850,408.875,37.750,45.070,45.001,0.00,0.08,-272.76,-272.82,-12,521,-944,24.8,3.1,-23.1,24.7,3.2,-22.7,5.73,1.72,-16.2,30.6
2016-03-08 00:35:00,0.0,1.95598,0.00048,408.245,0.032,0.1272,0.0016,140.000,45.001,31667.30007,1.95846,408.870,37.780,45.070,45.001,0.00,0.08,-272.76,-272.82,-10,521,-944,24.8,3.1,-23.0,24.7,3.2,-22.7,5.73,2.06,-16.1,30.6
2016-03-08 00:36:00,0.0,1.95612,0.00040,408.263,0.034,0.1279,0.0014,140.001,45.001,31669.50739,1.95857,408.892,37.813,45.070,45.001,0.00,0.08,-272.77,-272.83,-12,521,-944,24.8,3.1,-23.0,24.7,3.2,-22.7,5.73,1.75,-16.1,30.6
2016-03-08 00:37:00,0.0,1.95613,0.00043,408.264,0.027,0.1286,0.0019,140.000,45.001,31672.29570,1.95861,408.897,37.849,45.070,45.001,0.00,0.08,-272.77,-272.83,-11,521,-944,24.8,3.1,-22.9,24.8,3.2,-22.6,5.73,2.02,-16.1,30.7
2016-03-08 00:38:00,0.0,1.95596,0.00034,408.256,0.033,0.1297,0.0024,140.002,45.001,31673.29125,1.95845,408.895,37.883,45.070,45.000,0.00,0.08,-272.76,-272.82,-11,521,-944,24.8,3.1,-22.9,24.8,3.2,-22.6,5.73,1.78,-16.1,30.7
2016-03-08 00:39:00,0.0,1.95582,0.00027,408.259,0.026,0.1282,0.0015,139.996,45.001,31673.48276,1.95831,408.889,37.943,45.069,45.000,0.00,0.08,-272.76,-272.82,-11,521,-944,24.8,3.1,-22.9,24.8,3.2,-22.6,5.73,1.98,-16.1,30.7
2016-03-08 00:40:00,0.0,1.95571,0.00029,408.240,0.028,0.1281,0.0017,140.001,45.001,31675.08356,1.95818,408.871,37.941,45.069,45.000,0.00,0.08,-272.78,-272.82,-11,521,-944,24.8,3.1,-23.0,24.8,3.2,-22.6,5.73,1.79,-16.1,30.7
2016-03-08 00:41:00,0.0,1.95569,0.00045,408.255,0.033,0.1269,0.0012,139.998,45.000,31673.74688,1.95815,408.878,37.919,45.068,44.999,0.00,0.08,-272.76,-272.82,-12,521,-944,24.8,3.1,-23.0,24.8,3.2,-22.6,5.73,2.01,-16.1,30.7
2016-03-08 00:42:00,0.0,1.95586,0.00034,408.268,0.031,0.1268,0.0015,140.000,45.000,31670.17648,1.95829,408.892,37.840,45.068,44.999,0.00,0.08,-272.76,-272.82,-11,521,-944,24.8,3.1,-23.1,24.8,3.2,-22.7,5.73,1.72,-16.1,30.7
2016-03-08 00:43:00,0.0,1.95582,0.00036,408.245,0.031,0.1265,0.0019,140.000,44.999,31666.53378,1.95827,408.868,37.734,45.068,44.999,0.00,0.08,-272.77,-272.83,-12,521,-944,24.8,3.0,-23.1,24.8,3.2,-22.7,5.73,2.08,-16.1,30.7
2016-03-08 00:44:00,0.0,1.95586,0.00044,408.230,0.025,0.1258,0.0016,140.000,44.998,31662.04438,1.95829,408.848,37.628,45.068,44.999,0.00,0.08,-272.76,-272.82,-11,521,-944,24.7,3.0,-23.2,24.7,3.1,-22.8,5.73,1.69,-16.1,30.6
2016-03-08 00:45:00,0.0,1.95557,0.00041,408.238,0.032,0.1261,0.0019,140.000,44.998,31655.99753,1.95801,408.858,37.530,45.068,44.999,0.00,0.08,-272.76,-272.82,-11,521,-943,24.7,3.1,-23.2,24.7,3.1,-22.8,5.73,2.04,-16.1,30.6
2016-03-08 00:46:00,0.0,1.95558,0.00038,408.239,0.035,0.1250,0.0021,139.998,44.997,31649.00507,1.95796,408.852,37.411,45.068,44.999,0.00,0.08,-272.76,-272.83,-12,521,-943,24.6,3.0,-23.3,24.7,3.1,-22.8,5.73,1.81,-16.1,30.5
2016-03-08 00:47:00,0.0,1.95550,0.00063,408.221,0.039,0.1256,0.0014,139.998,44.997,31643.22578,1.95794,408.841,37.302,45.069,45.000,0.00,0.08,-272.77,-272.83,-11,521,-943,24.6,3.1,-23.2,24.7,3.1,-22.9,5.73,1.86,-16.1,30.5
2016-03-08 00:48:00,0.0,1.95560,0.00055,408.226,0.026,0.1253,0.0016,139.999,44.996,31636.58927,1.95806,408.842,37.212,45.069,45.000,0.00,0.08,-272.76,-272.82,-11,520,-943,24.6,3.1,-23.2,24.7,3.1,-22.8,5.73,1.99,-16.1,30.5
2016-03-08 00:49:00,0.0,1.95519,0.00052,408.198,0.031,0.1246,0.0017,140.000,44.996,31633.01632,1.95757,408.811,37.099,45.069,45.000,0.00,0.08,-272.76,-272.82,-12,521,-943,24.6,3.0,-23.3,24.7,3.1,-22.9,5.73,1.72,-16.1,30.5
2016-03-08 00:50:00,0.0,1.95545,0.00044,408.244,0.042,0.1253,0.0015,140.000,44.996,31627.59196,1.95785,408.859,37.010,45.069,45.000,0.00,0.08,-272.77,-272.83,-11,521,-942,24.5,3.1,-23.3,24.6,3.1,-22.9,5.73,2.08,-16.1,30.4
2016-03-08 00:51:00,0.0,1.95526,0.00056,408.210,0.044,0.1251,0.0023,140.000,44.996,31622.58795,1.95771,408.827,36.921,45.069,45.000,0.00,0.08,-272.76,-272.82,-12,520,-942,24.5,3.1,-23.3,24.6,3.1,-22.9,5.73,1.69,-16.2,30.4
2016-03-08 00:52:00,0.0,1.95544,0.00033,408.214,0.024,0.1256,0.0017,139.998,44.996,31616.09639,1.95784,408.832,36.833,45.069,45.000,0.00,0.08,-272.77,-272.81,-12,521,-942,24.5,3.1,-23.2,24.6,3.1,-22.9,5.73,2.06,-16.1,30.4
2016-03-08 00:53:00,0.0,1.95552,0.00034,408.252,0.036,0.1256,0.0016,139.998,44.996,31611.64037,1.95792,408.870,36.736,45.069,45.000,0.00,0.08,-272.77,-272.83,-11,521,-942,24.5,3.1,-23.3,24.6,3.1,-22.9,5.73,1.78,-16.1,30.3
2016-03-08 00:54:00,0.0,1.95576,0.00028,408.256,0.039,0.1248,0.0017,139.999,44.997,31606.20357,1.95816,408.870,36.662,45.069,45.000,0.00,0.08,-272.77,-272.83,-12,520,-942,24.4,3.1,-23.3,24.6,3.1,-22.9,5.73,1.90,-16.1,30.3
2016-03-08 00:55:00,0.0,1.95577,0.00044,408.246,0.035,0.1255,0.0015,140.002,44.997,31601.68435,1.95820,408.862,36.599,45.069,45.000,0.00,0.08,-272.76,-272.82,-11,521,-942,24.4,3.1,-23.2,24.6,3.1,-22.9,5.73,1.96,-16.2,30.3
2016-03-08 00:56:00,0.0,1.95586,0.00041,408.258,0.032,0.1252,0.0013,139.996,44.997,31594.75545,1.95825,408.873,36.549,45.069,45.000,0.00,0.08,-272.77,-272.82,-11,520,-942,24.4,3.1,-23.3,24.6,3.1,-22.9,5.73,1.74,-16.2,30.2
2016-03-08 00:57:00,0.0,1.95560,0.00040,408.223,0.031,0.1255,0.0021,140.000,44.997,31593.84525,1.95804,408.841,36.498,45.069,44.999,0.00,0.08,-272.77,-272.82,-12,520,-942,24.4,3.1,-23.3,24.6,3.1,-22.9,5.73,2.08,-16.2,30.2
2016-03-08 00:58:00,0.0,1.95604,0.00029,408.252,0.036,0.1248,0.0018,139.999,44.998,31588.87987,1.95844,408.866,36.445,45.069,44.999,0.00,0.08,-272.76,-272.82,-11,520,-942,24.4,3.1,-23.3,24.5,3.1,-22.9,5.73,1.69,-16.2,30.2
2016-03-08 00:59:00,0.0,1.95612,0.00041,408.259,0.029,0.1247,0.0014,140.001,44.998,31586.68902,1.95854,408.873,36.383,45.069,44.999,0.00,0.08,-272.77,-272.82,-12,520,-942,24.4,3.1,-23.3,24.5,3.2,-22.9,5.73,2.06,-16.2,30.1
2016-03-08 01:00:00,0.0,1.95602,0.00028,408.258,0.037,0.1250,0.0024,139.997,44.999,31582.32606,1.95844,408.872,36.343,45.068,44.999,0.00,0.08,-272.76,-272.83,-12,520,-942,24.3,3.1,-23.3,24.5,3.1,-22.9,5.73,1.80,-16.2,30.1
2016-03-08 01:01:00,0.0,1.95627,0.00031,408.243,0.032,0.1254,0.0013,139.999,44.999,31580.20559,1.95865,408.860,36.276,45.068,44.999,0.00,0.08,-272.76,-272.82,-10,520,-941,24.3,3.1,-23.3,24.5,3.2,-22.9,5.73,1.88,-16.2,30.0
2016-03-08 01:02:00,0.0,1.95619,0.00028,408.256,0.031,0.1248,0.0015,140.001,44.999,31578.32300,1.95860,408.869,36.229,45.068,44.999,0.00,0.08,-272.76,-272.83,-12,520,-941,24.3,3.1,-23.3,24.5,3.2,-22.8,5.73,2.00,-16.2,30.0
2016-03-08 01:03:00,0.0,1.95631,0.00046,408.264,0.034,0.1251,0.0011,140.001,45.000,31575.75207,1.95871,408.879,36.165,45.069,44.999,0.00,0.08,-272.77,-272.83,-11,520,-941,24.2,3.1,-23.3,24.5,3.2,-22.8,5.73,1.71,-16.2,30.0
2016-03-08 01:04:00,0.0,1.95655,0.00033,408.263,0.028,0.1251,0.0016,140.001,45.000,31575.12726,1.95897,408.880,36.111,45.069,44.999,0.00,0.08,-272.78,-272.82,-10,520,-941,24.2,3.1,-23.4,24.4,3.2,-23.0,5.73,2.09,-16.2,30.0
2016-03-08 01:05:00,0.0,1.95651,0.00034,408.271,0.037,0.1245,0.0020,140.000,45.001,31574.06121,1.95892,408.883,36.071,45.069,44.999,0.00,0.08,-272.76,-272.83,-12,520,-941,24.2,3.1,-23.3,24.4,3.2,-22.9,5.73,1.73,-16.2,29.9
2016-03-08 01:06:00,0.0,1.95643,0.00030,408.258,0.024,0.1257,0.0014,139.999,45.001,31572.22236,1.95886,408.877,36.034,45.069,44.999,0.00,0.08,-272.77,-272.83,-11,520,-941,24.2,3.1,-23.3,24.4,3.2,-22.9,5.73,1.97,-16.2,29.9
2016-03-08 01:07:00,0.0,1.95653,0.00031,408.250,0.030,0.1247,0.0015,140.000,45.001,31570.63118,1.95893,408.863,35.987,45.069,44.999,0.00,0.08,-272.77,-272.84,-11,520,-941,24.2,3.1,-23.2,24.4,3.2,-22.9,5.73,1.92,-16.2,29.9
2016-03-08 01:08:00,0.0,1.95631,0.00037,408.230,0.031,0.1248,0.0014,139.998,45.001,31570.92318,1.95872,408.845,35.939,45.069,45.000,0.00,0.08,-272.76,-272.82,-12,520,-941,24.2,3.1,-23.2,24.4,3.2,-22.9,5.73,1.77,-16.2,29.8
2016-03-08 01:09:00,0.0,1.95653,0.00041,408.282,0.037,0.1247,0.0017,140.001,45.000,31569.62016,1.95893,408.895,35.920,45.069,45.000,0.00,0.08,-272.77,-272.83,-11,520,-941,24.2,3.1,-23.3,24.4,3.2,-22.9,5.73,2.08,-16.2,29.8
2016-03-08 01:10:00,0.0,1.95618,0.00046,408.245,0.029,0.1253,0.0011,139.999,45.001,31569.11461,1.95863,408.862,35.877,45.069,45.000,0.00,0.08,-272.79,-272.83,-11,519,-941,24.1,3.2,-23.1,24.3,3.2,-23.0,5.73,1.71,-16.2,29.8
2016-03-08 01:11:00,0.0,1.95627,0.00027,408.254,0.021,0.1258,0.0015,139.999,45.000,31567.41451,1.95867,408.873,35.868,45.069,44.999,0.00,0.08,-272.78,-272.82,-12,520,-941,24.1,3.2,-22.9,24.3,3.2,-22.9,5.73,2.01,-16.2,29.7
2016-03-08 01:12:00,0.0,1.95598,0.00044,408.224,0.031,0.1260,0.0018,139.997,45.000,31564.61539,1.95844,408.846,35.825,45.069,44.999,0.00,0.08,-272.76,-272.82,-11,520,-941,24.1,3.2,-22.9,24.3,3.2,-22.9,5.73,1.89,-16.2,29.7
2016-03-08 01:13:00,0.0,1.95614,0.00039,408.244,0.038,0.1255,0.0016,139.999,45.000,31564.74314,1.95854,408.859,35.814,45.069,44.999,0.00,0.08,-272.77,-272.83,-11,519,-941,24.1,3.2,-22.9,24.3,3.2,-22.8,5.73,1.80,-16.2,29.7
2016-03-08 01:14:00,0.0,1.95624,0.00027,408.246,0.039,0.1269,0.0022,139.995,45.000,31562.85452,1.95871,408.872,35.813,45.069,44.999,0.00,0.08,-272.77,-272.83,-12,519,-941,24.1,3.2,-22.9,24.3,3.2,-22.9,5.73,2.07,-16.2,29.7
2016-03-08 01:15:00,0.0,1.95592,0.00034,408.221,0.029,0.1277,0.0024,139.997,45.000,31563.55897,1.95836,408.848,35.809,45.069,44.999,0.00,0.08,-272.76,-272.82,-10,519,-940,24.0,3.2,-22.9,24.2,3.2,-22.8,5.73,1.70,-16.2,29.7
2016-03-08 01:16:00,0.0,1.95597,0.00037,408.242,0.028,0.1265,0.0018,139.999,45.000,31563.08945,1.95844,408.864,35.810,45.069,44.999,0.00,0.08,-272.77,-272.82,-11,519,-940,24.1,3.2,-22.9,24.3,3.2,-22.8,5.73,2.06,-16.2,29.6
2016-03-08 01:17:00,0.0,1.95616,0.00031,408.247,0.031,0.1270,0.0018,139.998,45.000,31562.34509,1.95859,408.874,35.813,45.069,44.999,0.00,0.08,-272.77,-272.83,-12,519,-940,24.1,3.3,-22.8,24.2,3.2,-22.8,5.73,1.81,-16.2,29.6
2016-03-08 01:18:00,0.0,1.95587,0.00032,408.217,0.031,0.1274,0.0016,139.999,45.001,31563.91504,1.95833,408.842,35.813,45.069,44.999,0.00,0.08,-272.77,-272.83,-10,519,-940,24.0,3.3,-22.8,24.3,3.3,-22.7,5.73,1.88,-16.2,29.6
2016-03-08 01:19:00,0.0,1.95588,0.00043,408.215,0.046,0.1273,0.0016,140.000,45.001,31564.39951,1.95835,408.843,35.826,45.069,44.999,0.00,0.08,-272.76,-272.83,-12,519,-940,24.0,3.3,-22.8,24.3,3.3,-22.7,5.73,2.01,-16.2,29.6
2016-03-08 01:20:00,0.0,1.95560,0.00048,408.211,0.028,0.1276,0.0014,140.000,45.001,31563.92919,1.95804,408.838,35.813,45.069,44.999,0.00,0.08,-272.77,-272.82,-12,520,-940,24.0,3.3,-22.8,24.2,3.3,-22.7,5.73,1.71,-16.2,29.6
2016-03-08 01:21:00,0.0,1.95549,0.00044,408.204,0.034,0.1278,0.0019,140.000,45.002,31564.48647,1.95802,408.833,35.776,45.069,44.999,0.00,0.08,-272.77,-272.82,-10,519,-940,24.0,3.3,-22.8,24.2,3.3,-22.7,5.73,2.09,-16.2,29.5
2016-03-08 01:22:00,0.0,1.95541,0.00035,408.196,0.030,0.1293,0.0015,140.002,45.002,31563.89867,1.95788,408.831,35.750,45.069,44.999,0.00,0.08,-272.76,-272.82,-12,519,-940,24.0,3.3,-22.7,24.2,3.3,-22.7,5.73,1.75,-16.2,29.5
2016-03-08 01:23:00,0.0,1.95533,0.00036,408.166,0.031,0.1289,0.0021,140.000,45.002,31563.68213,1.95782,408.802,35.751,45.069,45.000,0.00,0.08,-272.77,-272.82,-11,519,-940,24.0,3.3,-22.7,24.2,3.3,-22.6,5.73,1.94,-16.2,29.5
2016-03-08 01:24:00,0.0,1.95584,0.00033,408.198,0.031,0.1282,0.0019,139.999,45.002,31561.67278,1.95829,408.828,35.750,45.069,45.000,0.00,0.08,-272.77,-272.83,-10,519,-940,24.0,3.3,-22.7,24.2,3.3,-22.6,5.73,1.98,-16.2,29.5
2016-03-08 01:25:00,0.0,1.95532,0.00040,408.171,0.030,0.1294,0.0020,140.000,45.001,31562.81829,1.95783,408.808,35.748,45.069,45.000,0.00,0.08,-272.76,-272.83,-12,519,-940,24.0,3.3,-22.7,24.1,3.3,-22.7,5.73,1.72,-16.2,29.5
2016-03-08 01:26:00,0.0,1.95500,0.00032,408.170,0.031,0.1298,0.0014,140.000,45.001,31561.98117,1.95749,408.808,35.714,45.069,45.000,0.00,0.08,-272.77,-272.83,-11,519,-940,23.9,3.3,-22.7,24.1,3.3,-22.6,5.73,2.08,-16.2,29.5
2016-03-08 01:27:00,0.0,1.95521,0.00045,408.165,0.034,0.1283,0.0022,140.001,45.001,31561.77910,1.95768,408.797,35.691,45.069,45.000,0.00,0.08,-272.76,-272.84,-10,519,-940,23.9,3.3,-22.8,24.1,3.3,-22.7,5.73,1.80,-16.2,29.4
2016-03-08 01:28:00,0.0,1.95545,0.00033,408.184,0.033,0.1289,0.0024,140.001,45.001,31562.60415,1.95794,408.818,35.678,45.070,45.000,0.00,0.08,-272.77,-272.83,-12,519,-940,23.9,3.3,-22.8,24.1,3.3,-22.7,5.73,1.85,-16.2,29.4
2016-03-08 01:29:00,0.0,1.95507,0.00053,408.196,0.037,0.1297,0.0017,139.997,45.000,31560.51404,1.95758,408.833,35.635,45.070,45.000,0.00,0.08,-272.77,-272.82,-11,519,-940,23.9,3.4,-22.6,24.1,3.3,-22.5,5.73,2.06,-16.2,29.4
2016-03-08 01:30:00,0.0,1.95532,0.00039,408.198,0.031,0.1285,0.0015,140.000,45.000,31559.15512,1.95778,408.832,35.633,45.070,45.000,0.00,0.08,-272.77,-272.83,-10,519,-940,23.9,3.3,-22.7,24.1,3.4,-22.4,5.73,1.71,-16.2,29.5
2016-03-08 01:31:00,0.0,1.95538,0.00027,408.202,0.030,0.1271,0.0017,139.997,45.000,31560.67901,1.95785,408.828,35.626,45.070,45.000,0.00,0.08,-272.78,-272.83,-12,518,-940,23.9,3.3,-22.9,24.1,3.4,-22.4,5.73,2.03,-16.2,29.4
2016-03-08 01:32:00,0.0,1.95530,0.00035,408.190,0.034,0.1269,0.0018,139.999,45.001,31561.19590,1.95777,408.815,35.625,45.070,45.000,0.00,0.08,-272.77,-272.83,-12,519,-940,23.9,3.3,-22.9,24.1,3.3,-22.6,5.73,1.91,-16.2,29.4
2016-03-08 01:33:00,0.0,1.95488,0.00023,408.157,0.032,0.1281,0.0022,139.999,45.000,31561.47582,1.95733,408.787,35.624,45.070,45.000,0.00,0.08,-272.77,-272.82,-10,519,-940,23.9,3.3,-22.8,24.1,3.4,-22.5,5.73,1.74,-16.2,29.4
2016-03-08 01:34:00,0.0,1.95483,0.00046,408.161,0.046,0.1280,0.0015,139.997,45.000,31560.96367,1.95728,408.789,35.612,45.070,45.000,0.00,0.08,-272.78,-272.83,-11,519,-940,23.9,3.3,-22.9,24.1,3.4,-22.5,5.73,2.10,-16.2,29.4
2016-03-08 01:35:00,0.0,1.95521,0.00031,408.184,0.020,0.1283,0.0014,140.001,45.000,31561.66008,1.95771,408.816,35.605,45.070,45.000,0.00,0.08,-272.76,-272.83,-12,519,-940,23.8,3.3,-22.8,24.1,3.4,-22.5,5.73,1.76,-16.2,29.4
2016-03-08 01:36:00,0.0,1.95525,0.00032,408.175,0.030,0.1284,0.0016,140.001,45.000,31560.30282,1.95771,408.806,35.624,45.070,45.000,0.00,0.08,-272.77,-272.82,-10,519,-940,23.9,3.3,-22.7,24.1,3.4,-22.3,5.73,1.90,-16.3,29.4
2016-03-08 01:37:00,0.0,1.95513,0.00044,408.175,0.020,0.1267,0.0012,140.000,45.000,31561.56860,1.95761,408.798,35.625,45.070,45.000,0.00,0.08,-272.77,-272.83,-11,518,-940,23.9,3.3,-22.9,24.0,3.4,-22.5,5.73,2.03,-16.2,29.4
2016-03-08 01:38:00,0.0,1.95530,0.00041,408.168,0.027,0.1276,0.0019,140.001,45.000,31563.89139,1.95772,408.796,35.636,45.070,45.000,0.00,0.08,-272.77,-272.83,-12,519,-940,23.9,3.3,-22.8,24.1,3.4,-22.5,5.73,1.70,-16.3,29.4
2016-03-08 01:39:00,0.0,1.95490,0.00061,408.160,0.042,0.1297,0.0022,139.997,45.000,31561.81653,1.95747,408.799,35.681,45.070,45.000,0.00,0.08,-272.77,-272.82,-10,518,-940,23.9,3.3,-22.7,24.1,3.4,-22.4,5.73,2.05,-16.3,29.3
2016-03-08 01:40:00,0.0,1.95445,0.00056,408.131,0.040,0.1294,0.0017,139.998,45.000,31564.36815,1.95691,408.765,35.697,45.070,45.000,0.00,0.08,-272.76,-272.83,-11,518,-940,23.9,3.4,-22.6,24.1,3.4,-22.3,5.73,1.86,-16.3,29.4
2016-03-08 01:41:00,0.0,1.95489,0.00050,408.159,0.031,0.1306,0.0014,140.000,45.000,31565.45898,1.95740,408.801,35.749,45.070,45.000,0.00,0.08,-272.77,-272.83,-12,519,-940,23.9,3.4,-22.5,24.1,3.4,-22.3,5.73,1.81,-16.3,29.4
2016-03-08 01:42:00,0.0,1.95500,0.00046,408.170,0.032,0.1312,0.0017,139.997,45.000,31567.23559,1.95753,408.817,35.766,45.070,45.000,0.00,0.08,-272.76,-272.82,-10,519,-940,23.9,3.4,-22.6,24.1,3.5,-22.2,5.73,2.09,-16.2,29.4
2016-03-08 01:43:00,0.0,1.95494,0.00045,408.189,0.028,0.1299,0.0014,140.000,45.000,31569.55731,1.95745,408.828,35.812,45.070,45.000,0.00,0.08,-272.76,-272.83,-11,518,-941,23.9,3.4,-22.6,24.1,3.4,-22.3,5.73,1.72,-16.2,29.4
2016-03-08 01:44:00,0.0,1.95486,0.00032,408.195,0.024,0.1331,0.0015,140.000,45.001,31570.53351,1.95742,408.850,35.810,45.070,45.000,0.00,0.08,-272.78,-272.83,-12,519,-941,23.9,3.5,-22.3,24.1,3.5,-22.1,5.73,1.98,-16.2,29.4